www.pogodaiklimat.ru

Погода и климат >> Архив погоды >> Россия >> Якутия >> Белая Гора


ПОГОДА в Белой Горе

  • Прогноз погоды в Белой Горе
  • Монитор погоды в Белой Горе
  • Климат города

АРХИВ ПОГОДЫ в Белой Горе

Время (UTC), дата Ветер
(напр.,м/с)
 
Видим.   Явления Облачность Т
(С)
Тd
(С)
f
(%)
Тe
(С)
Тes
(С)
Комфортность P
(гПа)
Po
(гПа)
Тmin
(С)
Tmax
(С)
R
(мм)
R24
(мм)
S
(см)
15 17.06 ЮЗ 1 н/о н/о +12.8 +8.9 77 +13 +13 1005.8 1000.5
18 17.06 З 1 н/о н/о +15.9 +7.5 57 +17 +17 1005.3 1000.1
21 17.06 СЗ 1 н/о н/о +19.1 +9.5 54 +21 +21 комфорт 1005.7 1000.5 +12.3
00 18.06 С 7-10
{13}
н/о н/о +11.5 +5.1 65 +8 +8 1009.5 1004.2 +11.5
03 18.06 СВ 8-12
{13}
н/о н/о +11.6 +4.9 63 +8 +8 1011.5 1006.2
06 18.06 С 7-11
{13}
н/о н/о +9.4 +3.6 67 +6 +6 1013.5 1008.1
09 18.06 С 7-10
{12}
н/о н/о +5.4 +1.9 78 0 0 1016.0 1010.5 +20.4
12 18.06 С 5
{10}
н/о н/о +3.8 +0.1 77 -1 -1 1017.6 1012.1
15 18.06 СВ 4 н/о н/о +3.6 +0.9 82 -1 -1 1017.1 1011.6
18 18.06 С 4 н/о н/о +3.2 +1.9 91 -2 -2 1017.5 1012.0
21 18.06 СВ 1 н/о н/о +4.5 +2.7 88 +3 +3 1016.7 1011.3 +3.1
00 19.06 СЗ 2 50 км 10/10 600 м
[Sc]
+6.5 +2.9 78 +4 +4 1014.6 1009.5
03 19.06 Ю 1 50 км 10/10 600 м
[Sc]
+10.0 +3.6 64 +10 +10 1011.7 1006.7
06 19.06 СЗ 1 50 км 5/5 1000 м
[Cu hum]
+12.4 +5.6 63 +13 +17 1008.5 1003.5
09 19.06 З 2 н/о н/о +13.4 +7.0 65 +13 +13 1006.7 1001.4 +14.6
12 19.06 С 1 н/о н/о +13.5 +7.5 67 +14 +14 1005.7 1000.5
15 19.06 ЮЗ 1 н/о н/о +9.3 +7.3 87 +9 +9 1005.2 999.9
18 19.06 СЗ 2 н/о н/о +9.9 +7.3 84 +8 +8 1005.1 999.8
21 19.06 З 1 н/о н/о +13.7 +7.1 64 +14 +14 1005.3 1000.0 +8.3
00 20.06 СЗ 1 50 км 9/5 600 м
[Cu med, cong Ci sp]
+15.6 +8.1 61 +16 +21 1004.8 999.9
03 20.06 СЗ 2 50 км 8/8 600 м
[Cb cap]
+16.8 +4.3 43 +17 +19 1004.3 999.4
06 20.06 С 4 50 км {ливн. осадки} 8/6 600 м
[Cb cap Ci sp]
+13.6 +8.0 69 +12 +14 1004.7 999.8
09 20.06 СВ 4 н/о н/о +12.8 +6.6 66 +11 +11 1005.4 1000.2 +17.1
12 20.06 В 3 н/о н/о +11.4 +5.1 65 +10 +10 1006.4 1001.1
15 20.06 СВ 6 н/о н/о +6.7 +3.4 79 +2 +2 1008.0 1002.6
18 20.06 СВ 5
{10}
н/о н/о +3.9 +0.1 76 -1 -1 1010.1 1004.6
21 20.06 СВ 4 н/о н/о +5.6 +1.0 72 +2 +2 1011.4 1006.0 +3.5
00 21.06 В 3 50 км 8/8 1000 м
[Cu hum]
+8.0 +1.0 61 +6 +7 1011.8 1006.8
03 21.06 В 3 50 км 6/6 1000 м
[Cu hum]
+9.4 -0.9 49 +8 +11 1011.7 1006.7
06 21.06 СВ 3 50 км 8/8 1000 м
[Cu hum]
+11.4 -2.0 39 +10 +11 1011.1 1006.1
09 21.06 СВ 3 н/о н/о +11.7 -0.6 43 +10 +10 1010.5 1005.2 +11.7
12 21.06 В 2 н/о н/о +10.5 +1.7 54 +9 +9 1009.5 1004.1
15 21.06 ЮВ 1 н/о н/о +8.4 +1.2 60 +8 +8 1008.1 1002.8
18 21.06 Ю 5 н/о н/о +8.0 +4.5 79 +4 +4 1007.0 1001.6
21 21.06 Ю 4 н/о н/о +11.8 +4.9 63 +10 +10 1006.2 1000.9 +7.3
00 22.06 штиль 0 50 км ясно +15.0 +5.6 53 +15 +28 опасность
простуды
1004.5 999.5
03 22.06 ЮЗ 4 50 км 8/0
[Cs]
+17.3 +5.3 45 +17 +23 1003.6 998.8
06 22.06 50 км 8/0
[Cs]
+17.5 +5.9 46 1003.1 998.3
12 22.06 ЮЗ 2 н/о н/о +16.8 +7.1 53 +17 +17 1004.4 999.2
15 22.06 ЮЗ 2 н/о н/о +15.0 +9.8 71 +15 +15 1004.6 999.3
18 22.06 ЮВ 1 н/о н/о +14.7 +9.5 71 +15 +15 1003.5 998.3
21 22.06 Ю 5 н/о н/о +17.5 +8.2 54 +17 +17 1001.7 996.5 +12.9
00 23.06 ЮЗ 4 50 км 8/0
[Ci fib]
+22.6 +7.0 37 +23 +29 комфорт 999.2 994.5
03 23.06 Ю 6 50 км 10/0
[Cs]
+24.8 +5.8 29 +24 +28 комфорт 996.0 991.3
06 23.06 З 3 50 км {дождь} 10/8 600 м
[Cb cap As op]
+23.5 +9.4 41 +24 +25 комфорт 995.0 990.3
09 23.06 ЮЗ 3
{11}
н/о н/о +17.3 +13.7 79 +17 +17 996.3 991.2 +25.4
12 23.06 ЮЗ 1 н/о н/о +16.8 +13.6 81 +18 +18 995.9 990.8
15 23.06 штиль 0 н/о н/о +15.2 +14.7 97 +15 +15 996.6 991.4
18 23.06 С 6
{11}
н/о н/о +7.2 +6.4 95 +3 +3 998.9 993.5

 

Местоположение метеостанции Белая Гора (Якутия, Россия): широта 68.55 долгота 146.20 высота над уровнем моря 41 м.

В архиве по умолчанию представлена погода в Белой Горе за последнюю неделю. Архивные данные за месяц целиком и за предыдущие месяцы, начиная с января 2011 года, Вы можете получить, выбрав интересующий диапазон дат из раскрывающегося списка и нажав кнопку "Ввод!".

Внимание! Время в таблицах - всемирное. Для получения местного времени необходимо прибавить поправку, которая в Белой Горе равна 11 ч.

Смотрите также архив погоды в соседних городах и на ближайших метеорологических станциях:

Погода в Чокурдахе (Якутия, Россия) (238 км)
Погода в Усть-Моме (Якутия, Россия) (266 км)
Погода в Депутатском (Якутия, Россия) (272 км)
Погода в Среднеколымске (Якутия, Россия) (335 км)
Погода в Андрюшкино (Якутия, Россия) (340 км)
Погода в Зырянке (Якутия, Россия) (373 км)
Погода в Усть-Куйге (Якутия, Россия) (447 км)
Погода в Усть-Чарках (Якутия, Россия) (449 км)
Погода в Юбилейной (Якутия, Россия) (458 км)
Погода в Усть-Нере (Якутия, Россия) (468 км)

Пояснения к столбцам:

Ветер - указаны скорость ветра в м/с - средняя за 10 мин, порывы в срок и между сроками (в фигурных скобках) и направление, откуда дует ветер: С - северный, СВ - северо-восточный, В - восточный, ЮВ - юго-восточный, Ю - южный, ЮЗ - юго-западный, З - западный, СЗ - северо-западный.
Видимость - горизонтальная дальность видимости в метрах или километрах. При видимости от 1 до 10 км при отсутствии осадков обычно наблюдается дымка, при ухудшении видимости до 1 км и менее - туман. В сухую погоду видимость может ухудшаться дымом, пылью или мглою.
Явления - указаны атмосферные явления, наблюдавшиеся в срок или в последний час перед сроком; фигурными скобками обозначены явления, наблюдавшиеся между сроками (за 1-3 часа до срока); квадратными скобками обозначены град или гололедные отложения с указанием их диаметра в мм.
Облачность - указаны через наклонную черту общая и нижняя облачность в баллах и высота нижней границы облаков в метрах; квадратными скобками обозначены формы облаков: Ci - перистые, Cs - перисто-слоистые, Cc - перисто-кучевые, Ac - высококучевые, As - высокослоистые, Sc - слоисто-кучевые, Ns - слоисто-дождевые, Cu - кучевые, Cb - кучево-дождевые. Подробнее классификацию облаков см. в Атласе облаков (PDF).
T - Температура воздуха - температура, измеренная на высоте 2 м над землей.
Td - Температура точки росы - температура, при понижении до которой содержащийся в воздухе водяной пар достигнет насыщения.
f - Относительная влажность воздуха - влажноcть воздуха, измеренная на высоте 2 м над землей.
Te - Эффективная температура - температура, которую ощущает одетый по сезону человек в тени. Характеристика душности погоды. При расчете учитывается влияние влажности воздуха и скорости ветра на теплоощущения человека.
Tes - Эффективная температура на солнце - температура, которую ощущает человек, с поправкой на солнечный нагрев. Характеристика знойности погоды. Зависит от высоты солнца над горизонтом, облачности и скорости ветра. Ночью, в пасмурную погоду, а также при ветре 12 м/с и более поправка равна нулю.
P - Атмосферное давление - приведенное к уровню моря атмосферное давление.
Po - Атмосферное давление - измеренное на уровне метеостанции атмосферное давление.
Tmin - Минимальная температура - минимум температуры воздуха на высоте 2 м над землей.
Tmax - Максимальная температура - максимум температуры воздуха на высоте 2 м над землей.
R - Количество осадков - Количество выпавших осадков за период времени, мм. При наведении курсора мыши на число - период времени, за который выпало указанное количество осадков.
R24 - Количество осадков - Количество выпавших осадков за 24 часа, мм.
S - Снежный покров - Высота снежного покрова, см. При наведении курсора мыши на число - состояние снежного покрова и степень покрытия местности в баллах.